TimeEDT,TemperatureF,Dew PointF,Humidity,Sea Level PressureIn,VisibilityMPH,Wind Direction,Wind SpeedMPH,Gust SpeedMPH,PrecipitationIn,Events,Conditions,WindDirDegrees,DateUTC
12:15 AM,45.7,31.5,58,30.37,10.0,SE,11.5,24.2,N/A,,Clear,130,2013-04-22 04:15:00
12:35 AM,45.0,31.6,60,30.36,10.0,SE,12.7,21.9,N/A,,Clear,140,2013-04-22 04:35:00
12:55 AM,44.8,31.8,60,30.36,10.0,SE,11.5,19.6,N/A,,Clear,130,2013-04-22 04:55:00
1:15 AM,44.2,32.0,62,30.36,10.0,SE,10.4,19.6,N/A,,Clear,130,2013-04-22 05:15:00
1:35 AM,43.9,32.0,63,30.36,10.0,ESE,12.7,19.6,N/A,,Scattered Clouds,120,2013-04-22 05:35:00
1:55 AM,44.1,32.0,63,30.35,10.0,SE,13.8,20.7,N/A,,Clear,130,2013-04-22 05:55:00
2:15 AM,43.7,32.0,63,30.35,10.0,ESE,9.2,19.6,N/A,,Clear,120,2013-04-22 06:15:00
2:35 AM,43.7,32.2,64,30.35,10.0,ESE,12.7,19.6,N/A,,Scattered Clouds,120,2013-04-22 06:35:00
3:15 AM,42.3,32.2,67,30.34,10.0,SE,13.8,19.6,N/A,,Scattered Clouds,140,2013-04-22 07:15:00
3:35 AM,42.1,32.2,68,30.33,10.0,SE,9.2,23.0,N/A,,Clear,130,2013-04-22 07:35:00
3:55 AM,41.9,32.2,68,30.33,10.0,SE,11.5,23.0,N/A,,Clear,140,2013-04-22 07:55:00
4:15 AM,41.5,32.0,69,30.33,10.0,SE,12.7,19.6,N/A,,Clear,130,2013-04-22 08:15:00
4:55 AM,41.0,32.2,71,30.33,10.0,SE,9.2,19.6,N/A,,Clear,130,2013-04-22 08:55:00
5:15 AM,40.6,32.2,72,30.33,10.0,SE,10.4,21.9,N/A,,Clear,130,2013-04-22 09:15:00
5:35 AM,40.3,32.2,73,30.33,10.0,SE,12.7,20.7,N/A,,Clear,130,2013-04-22 09:35:00
5:55 AM,40.1,32.2,73,30.33,10.0,SE,11.5,19.6,N/A,,Clear,130,2013-04-22 09:55:00
6:15 AM,39.7,32.0,74,30.33,10.0,SE,9.2,16.1,N/A,,Clear,140,2013-04-22 10:15:00
6:35 AM,39.6,32.0,74,30.34,10.0,ESE,9.2,17.3,N/A,,Clear,120,2013-04-22 10:35:00
6:55 AM,39.6,32.0,74,30.34,10.0,ESE,8.1,-,N/A,,Clear,120,2013-04-22 10:55:00
7:15 AM,39.6,32.0,74,30.34,10.0,ESE,10.4,16.1,N/A,,Clear,120,2013-04-22 11:15:00
7:35 AM,40.3,32.2,73,30.35,10.0,SE,9.2,19.6,N/A,,Clear,130,2013-04-22 11:35:00
7:55 AM,40.5,32.4,73,30.36,10.0,ESE,10.4,21.9,N/A,,Clear,120,2013-04-22 11:55:00
8:15 AM,41.0,32.4,71,30.36,10.0,ESE,11.5,19.6,N/A,,Clear,120,2013-04-22 12:15:00
8:35 AM,42.4,32.9,69,30.36,10.0,SE,8.1,-,N/A,,Clear,130,2013-04-22 12:35:00
8:55 AM,43.2,33.1,68,30.37,10.0,SE,8.1,17.3,N/A,,Clear,130,2013-04-22 12:55:00
9:15 AM,43.7,33.3,67,30.36,10.0,SE,6.9,-,N/A,,Clear,130,2013-04-22 13:15:00
9:35 AM,44.6,33.4,65,30.38,10.0,SE,6.9,-,N/A,,Clear,130,2013-04-22 13:35:00
9:55 AM,45.1,33.4,64,30.37,10.0,SE,8.1,-,N/A,,Clear,140,2013-04-22 13:55:00
10:15 AM,45.7,32.9,61,30.37,10.0,Calm,Calm,-,N/A,,Clear,0,2013-04-22 14:15:00
10:35 AM,47.1,32.4,57,30.36,10.0,SE,6.9,-,N/A,,Clear,140,2013-04-22 14:35:00
10:55 AM,47.8,32.7,56,30.36,10.0,East,4.6,-,N/A,,Clear,90,2013-04-22 14:55:00
11:15 AM,49.1,32.9,54,30.36,10.0,SE,4.6,-,N/A,,Clear,130,2013-04-22 15:15:00
11:35 AM,51.1,34.5,53,30.35,10.0,SSE,3.5,-,N/A,,Clear,150,2013-04-22 15:35:00
11:55 AM,51.6,34.2,51,30.34,10.0,East,5.8,-,N/A,,Clear,90,2013-04-22 15:55:00
12:15 PM,51.6,33.6,50,30.34,10.0,Calm,Calm,-,N/A,,Clear,0,2013-04-22 16:15:00
12:35 PM,53.6,34.9,49,30.33,10.0,ESE,5.8,-,N/A,,Clear,120,2013-04-22 16:35:00
12:55 PM,54.7,35.8,49,30.32,10.0,NE,6.9,-,N/A,,Clear,40,2013-04-22 16:55:00
1:15 PM,55.6,34.0,44,30.31,10.0,East,5.8,-,N/A,,Clear,100,2013-04-22 17:15:00
1:35 PM,56.1,33.4,42,30.30,10.0,ESE,5.8,-,N/A,,Clear,110,2013-04-22 17:35:00
1:55 PM,56.7,30.4,37,30.29,10.0,East,4.6,-,N/A,,Clear,100,2013-04-22 17:55:00
2:15 PM,57.6,31.6,37,30.29,10.0,East,3.5,-,N/A,,Clear,100,2013-04-22 18:15:00
2:35 PM,58.8,32.0,36,30.28,10.0,East,6.9,-,N/A,,Clear,90,2013-04-22 18:35:00
2:55 PM,58.5,31.6,36,30.27,10.0,ENE,10.4,-,N/A,,Clear,60,2013-04-22 18:55:00
3:15 PM,58.1,31.1,36,30.26,10.0,South,3.5,-,N/A,,Clear,170,2013-04-22 19:15:00
3:35 PM,61.0,32.9,35,30.26,10.0,SSE,6.9,-,N/A,,Clear,150,2013-04-22 19:35:00
4:15 PM,60.3,34.0,37,30.24,10.0,SSE,9.2,-,N/A,,Clear,150,2013-04-22 20:15:00
4:35 PM,59.7,33.4,37,30.24,10.0,ESE,6.9,-,N/A,,Clear,120,2013-04-22 20:35:00
5:15 PM,60.1,33.6,37,30.22,10.0,SE,10.4,-,N/A,,Clear,140,2013-04-22 21:15:00
5:35 PM,59.7,32.7,36,30.22,10.0,SE,9.2,-,N/A,,Clear,140,2013-04-22 21:35:00
5:55 PM,59.2,31.6,35,30.22,10.0,SE,8.1,-,N/A,,Clear,140,2013-04-22 21:55:00
6:15 PM,58.8,30.4,34,30.22,10.0,SE,6.9,-,N/A,,Clear,130,2013-04-22 22:15:00
6:35 PM,59.0,30.0,33,30.22,10.0,SE,8.1,-,N/A,,Clear,140,2013-04-22 22:35:00
7:15 PM,58.1,27.0,30,30.22,10.0,ESE,6.9,-,N/A,,Clear,110,2013-04-22 23:15:00
7:35 PM,57.2,25.9,30,30.21,10.0,ESE,4.6,-,N/A,,Clear,110,2013-04-22 23:35:00
7:55 PM,56.3,25.7,31,30.21,10.0,ESE,5.8,-,N/A,,Clear,120,2013-04-22 23:55:00
8:15 PM,54.9,27.7,35,30.22,10.0,ESE,5.8,-,N/A,,Clear,120,2013-04-23 00:15:00
8:35 PM,54.3,29.1,38,30.22,10.0,ESE,5.8,-,N/A,,Clear,110,2013-04-23 00:35:00
8:55 PM,53.4,28.9,39,30.22,10.0,ESE,5.8,-,N/A,,Clear,120,2013-04-23 00:55:00
9:15 PM,52.7,28.6,40,30.22,10.0,ESE,4.6,-,N/A,,Clear,110,2013-04-23 01:15:00
9:35 PM,52.3,27.5,38,30.23,10.0,ESE,6.9,-,N/A,,Clear,120,2013-04-23 01:35:00
9:55 PM,51.8,26.1,37,30.24,10.0,ESE,8.1,-,N/A,,Clear,120,2013-04-23 01:55:00
10:15 PM,50.9,24.8,36,30.24,10.0,ESE,5.8,-,N/A,,Clear,120,2013-04-23 02:15:00
10:35 PM,50.0,24.4,37,30.24,10.0,ESE,11.5,23.0,N/A,,Clear,110,2013-04-23 02:35:00
10:55 PM,49.5,24.1,37,30.23,10.0,ESE,11.5,24.2,N/A,,Clear,110,2013-04-23 02:55:00
11:15 PM,49.1,23.9,37,30.23,10.0,SE,12.7,23.0,N/A,,Clear,130,2013-04-23 03:15:00
11:35 PM,48.2,23.5,38,30.24,10.0,SE,10.4,19.6,N/A,,Clear,140,2013-04-23 03:35:00
11:55 PM,47.5,23.2,38,30.23,10.0,ESE,11.5,20.7,N/A,,Clear,120,2013-04-23 03:55:00